GFSMA_prec_precacc12_093.txt.gz
Total_Precipitation_Accumulation
0.02 0.00 0.01 0.01 0.01 0.00 0.00 0.01 0.05 0.18 0.32 0.34 0.35 0.34 0.20 0.07 0.04 0.02 0.02 0.02 0.12 0.05 0.03 0.04 0.03 0.02 0.01 0.02 0.03 0.02 0.01 0.00 0.00 0.00 0.00 0.00 0.00 0.00 0.00 0.00 0.00 0.00 0.00
0.04 0.00 0.00 0.01 0.01 0.00 0.02 0.06 0.12 0.27 0.41 0.42 0.54 0.31 0.15 0.07 0.03 0.04 0.01 0.00 0.01 0.03 0.02 0.03 0.03 0.02 0.01 0.02 0.03 0.02 0.01 0.01 0.01 0.01 0.01 0.00 0.00 0.00 0.00 0.00 0.00 0.00 0.00
0.03 0.02 0.02 0.01 0.00 0.01 0.02 0.06 0.20 0.53 0.58 0.45 0.59 0.36 0.12 0.05 0.04 0.06 0.03 0.00 0.00 0.00 0.00 0.01 0.03 0.03 0.03 0.02 0.01 0.01 0.01 0.01 0.01 0.01 0.01 0.00 0.00 0.00 0.00 0.00 0.00 0.00 0.00
0.07 0.05 0.04 0.03 0.02 0.06 0.13 0.19 0.18 0.55 0.51 0.35 0.31 0.34 0.12 0.06 0.03 0.06 0.03 0.00 0.00 0.00 0.00 0.01 0.02 0.03 0.04 0.02 0.01 0.01 0.01 0.01 0.01 0.01 0.01 0.00 0.00 0.00 0.00 0.00 0.00 0.00 0.00
0.06 0.06 0.05 0.03 0.06 0.12 0.13 0.27 0.29 0.47 0.59 0.37 0.19 0.26 0.10 0.05 0.04 0.03 0.02 0.00 0.00 0.00 0.00 0.00 0.01 0.01 0.03 0.03 0.01 0.02 0.01 0.01 0.01 0.01 0.00 0.00 0.00 0.00 0.00 0.00 0.00 0.00 0.00
0.05 0.07 0.08 0.07 0.10 0.10 0.09 0.27 0.38 0.44 0.60 0.43 0.27 0.28 0.16 0.04 0.05 0.04 0.01 0.00 0.00 0.00 0.00 0.00 0.00 0.01 0.01 0.02 0.01 0.01 0.02 0.01 0.01 0.01 0.00 0.00 0.00 0.00 0.00 0.00 0.00 0.00 0.00
0.08 0.11 0.08 0.07 0.05 0.05 0.11 0.24 0.42 0.44 0.57 0.58 0.52 0.45 0.32 0.15 0.06 0.04 0.01 0.00 0.00 0.00 0.00 0.00 0.00 0.00 0.00 0.01 0.00 0.01 0.01 0.01 0.01 0.00 0.00 0.00 0.00 0.00 0.00 0.00 0.00 0.00 0.00
0.03 0.07 0.07 0.07 0.11 0.10 0.04 0.24 0.33 0.36 0.47 0.43 0.39 0.33 0.37 0.34 0.22 0.05 0.01 0.00 0.00 0.00 0.00 0.00 0.00 0.00 0.00 0.00 0.00 0.00 0.01 0.01 0.01 0.00 0.00 0.00 0.00 0.00 0.00 0.00 0.00 0.00 0.00
0.02 0.05 0.14 0.17 0.13 0.19 0.15 0.16 0.24 0.19 0.29 0.32 0.15 0.22 0.19 0.18 0.10 0.05 0.01 0.00 0.00 0.00 0.00 0.00 0.00 0.00 0.00 0.00 0.00 0.00 0.00 0.00 0.00 0.00 0.00 0.00 0.00 0.00 0.00 0.00 0.00 0.00 0.00
0.05 0.06 0.02 0.05 0.11 0.14 0.25 0.24 0.24 0.23 0.20 0.25 0.15 0.17 0.06 0.05 0.05 0.10 0.07 0.01 0.00 0.00 0.00 0.00 0.00 0.00 0.00 0.00 0.00 0.00 0.00 0.00 0.00 0.00 0.00 0.00 0.00 0.00 0.00 0.00 0.00 0.00 0.00
0.02 0.03 0.02 0.06 0.13 0.14 0.20 0.25 0.29 0.29 0.19 0.18 0.09 0.12 0.12 0.08 0.13 0.14 0.12 0.04 0.00 0.00 0.00 0.00 0.00 0.00 0.00 0.00 0.00 0.00 0.00 0.00 0.00 0.00 0.00 0.00 0.00 0.00 0.00 0.00 0.00 0.00 0.00
0.01 0.02 0.04 0.06 0.14 0.15 0.19 0.29 0.29 0.30 0.25 0.22 0.19 0.08 0.08 0.10 0.11 0.11 0.06 0.02 0.00 0.00 0.00 0.00 0.00 0.00 0.00 0.00 0.00 0.00 0.00 0.00 0.00 0.00 0.00 0.00 0.00 0.00 0.00 0.00 0.00 0.00 0.00
0.01 0.01 0.04 0.12 0.16 0.20 0.24 0.33 0.37 0.40 0.33 0.26 0.25 0.15 0.06 0.06 0.08 0.11 0.08 0.03 0.01 0.00 0.02 0.00 0.00 0.00 0.00 0.00 0.00 0.00 0.00 0.00 0.00 0.00 0.00 0.00 0.00 0.00 0.00 0.00 0.00 0.00 0.00
0.00 0.00 0.01 0.10 0.16 0.31 0.40 0.36 0.42 0.37 0.45 0.36 0.30 0.26 0.12 0.08 0.08 0.05 0.03 0.06 0.04 0.01 0.02 0.03 0.00 0.00 0.00 0.00 0.00 0.00 0.00 0.00 0.00 0.00 0.00 0.00 0.00 0.00 0.00 0.00 0.00 0.00 0.00
0.00 0.00 0.00 0.02 0.09 0.20 0.42 0.53 0.46 0.42 0.42 0.47 0.36 0.30 0.17 0.12 0.09 0.04 0.02 0.03 0.04 0.02 0.00 0.01 0.02 0.02 0.03 0.04 0.02 0.00 0.00 0.00 0.00 0.00 0.00 0.00 0.00 0.00 0.01 0.01 0.01 0.01 0.01
0.01 0.01 0.00 0.01 0.03 0.13 0.26 0.54 0.53 0.47 0.52 0.48 0.46 0.40 0.25 0.14 0.09 0.03 0.01 0.01 0.02 0.02 0.03 0.01 0.00 0.00 0.03 0.04 0.05 0.03 0.01 0.01 0.00 0.01 0.02 0.02 0.01 0.01 0.02 0.02 0.02 0.01 0.00
0.00 0.01 0.01 0.00 0.02 0.08 0.21 0.44 0.65 0.44 0.50 0.51 0.42 0.40 0.30 0.18 0.10 0.05 0.03 0.04 0.04 0.03 0.03 0.03 0.02 0.01 0.00 0.00 0.00 0.00 0.01 0.01 0.01 0.03 0.04 0.05 0.05 0.05 0.04 0.02 0.01 0.01 0.00
0.01 0.00 0.01 0.01 0.00 0.02 0.14 0.37 0.65 0.67 0.48 0.47 0.50 0.40 0.35 0.27 0.18 0.13 0.08 0.07 0.06 0.04 0.04 0.02 0.01 0.01 0.01 0.00 0.00 0.00 0.00 0.00 0.01 0.03 0.02 0.01 0.01 0.01 0.01 0.02 0.00 0.00 0.00
0.02 0.01 0.01 0.02 0.01 0.00 0.07 0.31 0.46 0.64 0.58 0.42 0.47 0.51 0.42 0.31 0.27 0.23 0.17 0.13 0.07 0.05 0.04 0.02 0.00 0.01 0.01 0.00 0.00 0.00 0.00 0.00 0.00 0.00 0.00 0.00 0.00 0.00 0.01 0.01 0.01 0.02 0.02
0.01 0.01 0.02 0.06 0.06 0.01 0.09 0.18 0.26 0.43 0.58 0.56 0.49 0.55 0.50 0.40 0.24 0.19 0.16 0.12 0.10 0.08 0.05 0.01 0.01 0.02 0.03 0.02 0.02 0.01 0.00 0.01 0.02 0.05 0.09 0.14 0.14 0.12 0.12 0.11 0.11 0.11 0.11
0.01 0.01 0.01 0.03 0.06 0.02 0.03 0.09 0.16 0.25 0.46 0.60 0.57 0.52 0.33 0.32 0.31 0.25 0.21 0.14 0.09 0.08 0.08 0.06 0.05 0.06 0.07 0.09 0.11 0.13 0.17 0.16 0.21 0.23 0.24 0.24 0.23 0.20 0.22 0.22 0.15 0.13 0.11
0.03 0.03 0.03 0.04 0.06 0.03 0.08 0.06 0.08 0.10 0.12 0.22 0.27 0.28 0.27 0.24 0.20 0.22 0.21 0.19 0.15 0.12 0.09 0.07 0.08 0.09 0.08 0.07 0.06 0.05 0.07 0.08 0.10 0.12 0.11 0.11 0.12 0.15 0.17 0.16 0.23 0.17 0.13
0.03 0.03 0.05 0.06 0.06 0.05 0.08 0.09 0.09 0.05 0.07 0.06 0.10 0.14 0.13 0.21 0.22 0.12 0.12 0.10 0.09 0.10 0.08 0.06 0.05 0.08 0.10 0.14 0.16 0.17 0.19 0.23 0.25 0.22 0.25 0.25 0.21 0.24 0.23 0.21 0.20 0.11 0.07
0.05 0.05 0.05 0.05 0.04 0.07 0.09 0.11 0.11 0.03 0.04 0.07 0.06 0.05 0.06 0.08 0.16 0.17 0.09 0.09 0.11 0.11 0.14 0.14 0.13 0.15 0.14 0.11 0.10 0.10 0.10 0.09 0.08 0.10 0.08 0.09 0.07 0.07 0.09 0.10 0.11 0.08 0.05
0.14 0.13 0.11 0.08 0.06 0.07 0.13 0.12 0.11 0.02 0.03 0.05 0.06 0.06 0.05 0.04 0.12 0.10 0.03 0.04 0.06 0.06 0.09 0.06 0.03 0.04 0.04 0.02 0.01 0.01 0.00 0.00 0.01 0.00 0.00 0.00 0.00 0.01 0.01 0.01 0.01 0.01 0.01
0.17 0.17 0.19 0.18 0.19 0.10 0.17 0.16 0.13 0.05 0.06 0.03 0.03 0.07 0.09 0.05 0.08 0.05 0.02 0.01 0.03 0.05 0.05 0.03 0.02 0.01 0.01 0.00 0.00 0.00 0.00 0.00 0.00 0.00 0.00 0.00 0.00 0.00 0.00 0.00 0.00 0.00 0.00

GFSMA_prec_precacc12_096.txt.gz
Total_Precipitation_Accumulation
0.00 0.00 0.00 0.00 0.00 0.00 0.00 0.00 0.01 0.07 0.19 0.25 0.38 0.46 0.41 0.27 0.23 0.18 0.15 0.16 0.28 0.36 0.09 0.05 0.06 0.05 0.03 0.03 0.04 0.03 0.01 0.00 0.00 0.00 0.00 0.00 0.01 0.01 0.00 0.00 0.00 0.00 0.00
0.00 0.00 0.00 0.00 0.00 0.00 0.00 0.00 0.00 0.02 0.20 0.33 0.56 0.55 0.50 0.34 0.23 0.23 0.05 0.03 0.04 0.23 0.17 0.07 0.05 0.02 0.02 0.02 0.04 0.03 0.02 0.01 0.01 0.01 0.01 0.00 0.00 0.00 0.00 0.00 0.00 0.00 0.00
0.00 0.00 0.01 0.01 0.00 0.00 0.00 0.00 0.01 0.07 0.24 0.30 0.59 0.59 0.52 0.37 0.22 0.24 0.11 0.00 0.00 0.02 0.08 0.04 0.04 0.05 0.03 0.02 0.02 0.02 0.02 0.02 0.02 0.02 0.01 0.00 0.00 0.00 0.00 0.00 0.00 0.00 0.00
0.01 0.01 0.01 0.00 0.02 0.06 0.08 0.05 0.01 0.04 0.17 0.23 0.31 0.46 0.43 0.35 0.21 0.21 0.17 0.06 0.03 0.00 0.01 0.01 0.01 0.03 0.04 0.02 0.01 0.02 0.02 0.02 0.02 0.02 0.01 0.00 0.00 0.01 0.01 0.00 0.00 0.00 0.00
0.01 0.01 0.01 0.02 0.05 0.12 0.07 0.06 0.06 0.08 0.35 0.27 0.19 0.29 0.29 0.33 0.27 0.16 0.15 0.13 0.05 0.01 0.00 0.00 0.00 0.01 0.02 0.03 0.01 0.02 0.02 0.02 0.02 0.02 0.01 0.01 0.00 0.01 0.01 0.00 0.00 0.00 0.00
0.01 0.03 0.04 0.06 0.10 0.10 0.06 0.02 0.08 0.19 0.46 0.40 0.27 0.29 0.19 0.16 0.22 0.17 0.09 0.09 0.04 0.00 0.00 0.00 0.00 0.00 0.01 0.02 0.01 0.02 0.02 0.02 0.02 0.02 0.02 0.01 0.01 0.01 0.01 0.00 0.00 0.00 0.00
0.03 0.04 0.03 0.04 0.04 0.06 0.09 0.07 0.15 0.25 0.39 0.55 0.53 0.46 0.33 0.17 0.11 0.14 0.11 0.04 0.02 0.00 0.00 0.00 0.00 0.00 0.00 0.01 0.01 0.01 0.03 0.03 0.02 0.02 0.01 0.01 0.01 0.00 0.00 0.00 0.00 0.00 0.00
0.02 0.03 0.03 0.05 0.07 0.06 0.03 0.05 0.13 0.26 0.36 0.40 0.40 0.33 0.38 0.39 0.35 0.19 0.10 0.07 0.01 0.00 0.00 0.00 0.00 0.00 0.00 0.00 0.00 0.00 0.02 0.03 0.02 0.01 0.01 0.01 0.00 0.00 0.00 0.00 0.00 0.00 0.00
0.01 0.01 0.02 0.04 0.05 0.08 0.10 0.07 0.09 0.14 0.26 0.31 0.15 0.23 0.19 0.20 0.16 0.25 0.19 0.08 0.02 0.00 0.00 0.00 0.00 0.00 0.00 0.00 0.00 0.00 0.00 0.01 0.02 0.01 0.00 0.00 0.00 0.00 0.00 0.00 0.00 0.00 0.00
0.04 0.02 0.02 0.03 0.03 0.04 0.13 0.17 0.15 0.19 0.22 0.28 0.16 0.17 0.07 0.05 0.07 0.16 0.22 0.19 0.05 0.01 0.00 0.00 0.00 0.00 0.00 0.00 0.00 0.00 0.00 0.00 0.00 0.00 0.00 0.00 0.00 0.00 0.00 0.00 0.00 0.00 0.00
0.03 0.03 0.02 0.02 0.03 0.03 0.06 0.16 0.23 0.23 0.17 0.21 0.11 0.12 0.12 0.09 0.15 0.17 0.24 0.20 0.10 0.03 0.01 0.00 0.00 0.00 0.00 0.00 0.00 0.00 0.00 0.00 0.00 0.00 0.00 0.00 0.00 0.00 0.00 0.00 0.00 0.00 0.00
0.02 0.02 0.01 0.01 0.02 0.04 0.06 0.11 0.23 0.24 0.22 0.22 0.21 0.08 0.07 0.11 0.13 0.18 0.21 0.18 0.14 0.09 0.02 0.00 0.00 0.00 0.00 0.00 0.00 0.00 0.00 0.00 0.00 0.00 0.00 0.00 0.00 0.00 0.00 0.00 0.00 0.00 0.00
0.01 0.01 0.01 0.01 0.02 0.06 0.12 0.16 0.21 0.34 0.28 0.25 0.26 0.15 0.08 0.07 0.12 0.22 0.27 0.26 0.16 0.06 0.02 0.00 0.00 0.00 0.00 0.00 0.00 0.00 0.00 0.00 0.00 0.00 0.00 0.00 0.00 0.00 0.00 0.00 0.00 0.00 0.00
0.00 0.00 0.01 0.01 0.03 0.12 0.23 0.24 0.30 0.31 0.42 0.34 0.28 0.26 0.14 0.14 0.15 0.14 0.15 0.20 0.15 0.07 0.01 0.01 0.00 0.00 0.00 0.00 0.00 0.00 0.00 0.00 0.00 0.00 0.00 0.00 0.00 0.00 0.00 0.00 0.00 0.00 0.00
0.00 0.00 0.00 0.01 0.04 0.14 0.24 0.45 0.42 0.41 0.43 0.46 0.35 0.31 0.21 0.16 0.18 0.19 0.12 0.07 0.07 0.09 0.03 0.01 0.02 0.01 0.01 0.01 0.01 0.00 0.00 0.00 0.00 0.00 0.00 0.00 0.00 0.00 0.01 0.01 0.01 0.01 0.01
0.00 0.00 0.00 0.01 0.01 0.07 0.18 0.43 0.46 0.44 0.53 0.55 0.55 0.50 0.33 0.21 0.17 0.15 0.12 0.05 0.04 0.04 0.04 0.01 0.00 0.00 0.02 0.04 0.05 0.03 0.01 0.01 0.00 0.01 0.02 0.02 0.01 0.01 0.02 0.02 0.02 0.01 0.00
0.00 0.00 0.00 0.00 0.01 0.04 0.13 0.36 0.60 0.43 0.54 0.64 0.61 0.57 0.42 0.28 0.28 0.21 0.13 0.08 0.06 0.04 0.04 0.09 0.02 0.01 0.01 0.01 0.01 0.01 0.01 0.01 0.01 0.03 0.04 0.05 0.05 0.05 0.04 0.02 0.01 0.01 0.00
0.01 0.00 0.00 0.00 0.00 0.01 0.09 0.29 0.58 0.62 0.53 0.55 0.65 0.62 0.59 0.39 0.31 0.29 0.17 0.13 0.10 0.09 0.05 0.08 0.08 0.03 0.02 0.02 0.02 0.01 0.01 0.01 0.01 0.04 0.02 0.01 0.01 0.01 0.01 0.02 0.00 0.00 0.00
0.02 0.01 0.01 0.00 0.00 0.00 0.05 0.26 0.41 0.62 0.68 0.62 0.60 0.68 0.58 0.47 0.43 0.31 0.20 0.18 0.14 0.13 0.13 0.07 0.05 0.05 0.04 0.03 0.01 0.01 0.01 0.01 0.00 0.01 0.00 0.01 0.00 0.01 0.01 0.01 0.01 0.02 0.02
0.01 0.01 0.01 0.05 0.04 0.00 0.06 0.16 0.24 0.42 0.62 0.73 0.68 0.62 0.68 0.58 0.45 0.31 0.23 0.19 0.18 0.17 0.14 0.09 0.06 0.06 0.06 0.05 0.04 0.02 0.02 0.01 0.03 0.05 0.09 0.14 0.13 0.12 0.12 0.13 0.15 0.15 0.14
0.01 0.01 0.01 0.02 0.05 0.02 0.03 0.08 0.19 0.25 0.47 0.66 0.70 0.71 0.54 0.57 0.52 0.42 0.33 0.22 0.15 0.14 0.14 0.11 0.09 0.10 0.11 0.12 0.11 0.12 0.14 0.13 0.18 0.19 0.20 0.20 0.20 0.19 0.21 0.21 0.15 0.14 0.12
0.02 0.02 0.02 0.02 0.05 0.03 0.07 0.06 0.10 0.13 0.15 0.25 0.34 0.42 0.56 0.52 0.46 0.48 0.42 0.37 0.29 0.22 0.18 0.14 0.12 0.12 0.13 0.12 0.11 0.11 0.10 0.09 0.11 0.12 0.10 0.10 0.09 0.09 0.10 0.09 0.16 0.11 0.08
0.03 0.03 0.04 0.04 0.05 0.04 0.08 0.09 0.10 0.07 0.12 0.08 0.14 0.25 0.33 0.54 0.47 0.30 0.31 0.29 0.27 0.26 0.20 0.15 0.11 0.10 0.09 0.09 0.09 0.11 0.12 0.13 0.13 0.12 0.11 0.11 0.10 0.11 0.10 0.11 0.11 0.04 0.02
0.04 0.04 0.04 0.04 0.04 0.06 0.09 0.12 0.13 0.04 0.11 0.13 0.09 0.07 0.13 0.19 0.31 0.31 0.26 0.27 0.22 0.17 0.17 0.15 0.11 0.14 0.11 0.08 0.07 0.08 0.08 0.09 0.11 0.11 0.10 0.08 0.07 0.05 0.03 0.01 0.02 0.00 0.00
0.06 0.06 0.06 0.05 0.04 0.05 0.08 0.10 0.10 0.02 0.02 0.06 0.08 0.10 0.09 0.07 0.18 0.19 0.11 0.14 0.15 0.12 0.11 0.10 0.06 0.05 0.05 0.04 0.03 0.02 0.03 0.03 0.03 0.02 0.01 0.01 0.01 0.00 0.00 0.00 0.00 0.00 0.00
0.20 0.14 0.18 0.17 0.19 0.10 0.17 0.17 0.15 0.06 0.08 0.05 0.05 0.10 0.16 0.11 0.14 0.08 0.03 0.03 0.06 0.10 0.11 0.10 0.07 0.05 0.03 0.02 0.02 0.00 0.00 0.00 0.00 0.00 0.00 0.00 0.00 0.00 0.00 0.00 0.00 0.00 0.00

GFSMA_prec_precacc12_102.txt.gz
Total_Precipitation_Accumulation
0.00 0.00 0.00 0.00 0.00 0.00 0.00 0.02 0.03 0.02 0.07 0.17 0.32 0.42 0.40 0.28 0.27 0.23 0.28 0.41 0.68 1.04 0.50 0.24 0.15 0.10 0.07 0.08 0.07 0.04 0.01 0.00 0.00 0.00 0.00 0.00 0.00 0.00 0.00 0.00 0.00 0.00 0.00
0.00 0.00 0.01 0.01 0.00 0.00 0.00 0.01 0.02 0.02 0.05 0.17 0.36 0.47 0.51 0.39 0.32 0.34 0.20 0.21 0.30 0.82 1.07 0.34 0.18 0.07 0.09 0.09 0.09 0.07 0.02 0.02 0.01 0.01 0.00 0.01 0.01 0.00 0.00 0.00 0.00 0.00 0.00
0.01 0.00 0.01 0.01 0.01 0.00 0.00 0.01 0.01 0.01 0.02 0.07 0.28 0.42 0.51 0.48 0.45 0.44 0.33 0.15 0.17 0.32 1.50 0.91 0.41 0.12 0.11 0.10 0.07 0.04 0.03 0.04 0.03 0.02 0.01 0.00 0.01 0.01 0.01 0.00 0.01 0.01 0.00
0.00 0.00 0.01 0.00 0.00 0.01 0.01 0.01 0.00 0.00 0.01 0.06 0.10 0.27 0.43 0.51 0.51 0.57 0.52 0.35 0.33 0.21 0.74 0.96 0.41 0.26 0.14 0.10 0.07 0.03 0.03 0.02 0.02 0.03 0.01 0.01 0.01 0.01 0.01 0.01 0.00 0.00 0.00
0.01 0.00 0.00 0.00 0.01 0.01 0.01 0.01 0.01 0.00 0.00 0.02 0.04 0.08 0.29 0.45 0.53 0.57 0.65 0.53 0.57 0.51 0.22 0.18 0.10 0.13 0.08 0.05 0.07 0.04 0.02 0.02 0.02 0.03 0.02 0.01 0.01 0.02 0.01 0.01 0.01 0.00 0.00
0.00 0.00 0.00 0.00 0.01 0.01 0.02 0.02 0.02 0.01 0.01 0.04 0.05 0.07 0.15 0.25 0.40 0.51 0.61 0.64 0.60 0.77 0.28 0.13 0.03 0.04 0.03 0.02 0.03 0.04 0.02 0.02 0.02 0.03 0.02 0.02 0.02 0.01 0.02 0.01 0.00 0.00 0.00
0.00 0.00 0.00 0.00 0.01 0.01 0.02 0.02 0.03 0.03 0.03 0.05 0.08 0.14 0.28 0.20 0.20 0.35 0.49 0.46 0.66 0.47 0.20 0.17 0.07 0.05 0.02 0.01 0.01 0.03 0.03 0.03 0.02 0.02 0.03 0.02 0.01 0.01 0.01 0.00 0.00 0.00 0.00
0.01 0.00 0.01 0.01 0.01 0.02 0.01 0.04 0.05 0.03 0.03 0.03 0.03 0.15 0.31 0.41 0.41 0.32 0.31 0.35 0.34 0.27 0.13 0.10 0.08 0.06 0.03 0.02 0.01 0.01 0.03 0.04 0.03 0.02 0.03 0.02 0.01 0.01 0.01 0.01 0.00 0.00 0.00
0.16 0.09 0.03 0.03 0.01 0.01 0.03 0.04 0.07 0.07 0.04 0.05 0.02 0.12 0.17 0.19 0.19 0.30 0.31 0.26 0.30 0.21 0.13 0.11 0.04 0.02 0.01 0.01 0.00 0.00 0.00 0.03 0.04 0.03 0.03 0.01 0.01 0.00 0.00 0.00 0.00 0.00 0.00
0.61 0.50 0.28 0.22 0.14 0.05 0.05 0.07 0.09 0.14 0.14 0.08 0.08 0.13 0.06 0.05 0.08 0.19 0.27 0.30 0.21 0.17 0.12 0.11 0.09 0.03 0.00 0.00 0.00 0.00 0.00 0.00 0.02 0.02 0.01 0.01 0.01 0.01 0.00 0.00 0.00 0.00 0.00
0.24 0.45 0.47 0.38 0.23 0.11 0.08 0.11 0.08 0.09 0.11 0.11 0.07 0.12 0.13 0.09 0.16 0.18 0.25 0.26 0.25 0.15 0.07 0.05 0.04 0.02 0.00 0.00 0.00 0.00 0.00 0.00 0.00 0.01 0.01 0.01 0.01 0.01 0.01 0.00 0.00 0.00 0.00
0.06 0.06 0.08 0.12 0.11 0.07 0.07 0.09 0.07 0.07 0.08 0.11 0.15 0.12 0.12 0.12 0.14 0.19 0.22 0.21 0.24 0.22 0.17 0.11 0.05 0.01 0.00 0.00 0.00 0.00 0.00 0.00 0.00 0.00 0.00 0.01 0.01 0.01 0.01 0.00 0.00 0.00 0.00
0.03 0.02 0.02 0.04 0.04 0.03 0.04 0.05 0.05 0.07 0.08 0.13 0.17 0.14 0.13 0.12 0.16 0.23 0.30 0.30 0.27 0.20 0.22 0.20 0.13 0.06 0.01 0.00 0.00 0.00 0.00 0.00 0.00 0.00 0.00 0.00 0.00 0.00 0.01 0.01 0.01 0.00 0.01
0.03 0.05 0.02 0.04 0.06 0.09 0.11 0.08 0.06 0.07 0.11 0.18 0.17 0.16 0.11 0.15 0.20 0.18 0.18 0.25 0.28 0.21 0.12 0.07 0.07 0.09 0.06 0.02 0.00 0.00 0.00 0.00 0.00 0.00 0.00 0.00 0.00 0.00 0.00 0.00 0.00 0.01 0.01
0.11 0.12 0.04 0.10 0.19 0.17 0.15 0.15 0.12 0.12 0.15 0.22 0.21 0.22 0.16 0.13 0.16 0.20 0.17 0.12 0.14 0.19 0.15 0.07 0.04 0.02 0.02 0.03 0.02 0.00 0.00 0.00 0.00 0.00 0.00 0.00 0.00 0.00 0.00 0.00 0.00 0.00 0.00
0.19 0.17 0.12 0.14 0.17 0.21 0.22 0.17 0.14 0.21 0.31 0.31 0.37 0.36 0.27 0.18 0.15 0.15 0.16 0.11 0.11 0.10 0.13 0.10 0.08 0.04 0.03 0.02 0.01 0.00 0.00 0.00 0.00 0.00 0.00 0.00 0.00 0.00 0.00 0.01 0.01 0.01 0.00
0.21 0.12 0.11 0.11 0.16 0.17 0.14 0.12 0.16 0.18 0.32 0.43 0.45 0.45 0.33 0.24 0.28 0.23 0.19 0.16 0.12 0.10 0.13 0.20 0.10 0.08 0.07 0.04 0.03 0.01 0.00 0.00 0.00 0.01 0.01 0.01 0.01 0.01 0.01 0.00 0.00 0.00 0.00
0.09 0.06 0.06 0.09 0.08 0.06 0.03 0.07 0.20 0.31 0.33 0.32 0.42 0.53 0.56 0.36 0.28 0.29 0.27 0.26 0.19 0.15 0.09 0.15 0.16 0.10 0.06 0.04 0.07 0.06 0.05 0.02 0.01 0.04 0.02 0.00 0.00 0.00 0.00 0.00 0.00 0.00 0.00
0.02 0.01 0.02 0.02 0.04 0.04 0.02 0.03 0.12 0.30 0.44 0.43 0.36 0.50 0.50 0.48 0.40 0.33 0.30 0.30 0.27 0.21 0.17 0.11 0.14 0.09 0.06 0.06 0.07 0.05 0.04 0.02 0.01 0.02 0.01 0.01 0.01 0.02 0.02 0.02 0.03 0.03 0.03
0.01 0.01 0.01 0.01 0.01 0.01 0.02 0.06 0.08 0.18 0.32 0.45 0.53 0.50 0.53 0.51 0.45 0.39 0.34 0.32 0.31 0.29 0.24 0.21 0.15 0.13 0.11 0.11 0.09 0.06 0.05 0.03 0.03 0.03 0.03 0.05 0.09 0.13 0.12 0.10 0.09 0.09 0.10
0.02 0.01 0.01 0.00 0.01 0.00 0.01 0.05 0.12 0.16 0.24 0.29 0.38 0.50 0.48 0.55 0.57 0.56 0.46 0.39 0.34 0.31 0.30 0.27 0.22 0.19 0.16 0.16 0.16 0.16 0.14 0.10 0.11 0.12 0.10 0.10 0.09 0.10 0.10 0.10 0.10 0.09 0.08
0.08 0.03 0.01 0.01 0.01 0.01 0.03 0.03 0.06 0.08 0.11 0.18 0.25 0.38 0.60 0.66 0.70 0.77 0.78 0.70 0.60 0.47 0.34 0.25 0.21 0.19 0.16 0.15 0.18 0.24 0.23 0.22 0.22 0.17 0.18 0.23 0.20 0.15 0.12 0.09 0.13 0.07 0.03
0.48 0.19 0.04 0.02 0.02 0.02 0.04 0.06 0.08 0.05 0.08 0.06 0.12 0.24 0.36 0.72 0.81 0.66 0.74 0.74 0.75 0.70 0.54 0.42 0.31 0.23 0.17 0.16 0.18 0.22 0.20 0.18 0.17 0.19 0.24 0.26 0.22 0.21 0.19 0.21 0.17 0.06 0.03
0.80 0.45 0.13 0.04 0.02 0.03 0.05 0.07 0.10 0.04 0.10 0.13 0.09 0.09 0.15 0.28 0.62 0.70 0.65 0.71 0.73 0.68 0.69 0.48 0.35 0.33 0.29 0.27 0.23 0.20 0.20 0.22 0.24 0.25 0.24 0.21 0.17 0.15 0.11 0.10 0.14 0.04 0.01
0.63 0.41 0.16 0.05 0.02 0.03 0.05 0.07 0.08 0.01 0.02 0.05 0.11 0.13 0.11 0.06 0.16 0.33 0.35 0.42 0.49 0.56 0.55 0.55 0.49 0.41 0.40 0.40 0.34 0.26 0.21 0.17 0.16 0.13 0.10 0.10 0.11 0.11 0.10 0.09 0.08 0.05 0.01
0.81 0.58 0.27 0.07 0.06 0.02 0.06 0.09 0.10 0.04 0.06 0.04 0.04 0.11 0.19 0.16 0.19 0.15 0.14 0.19 0.23 0.29 0.33 0.36 0.34 0.32 0.27 0.24 0.24 0.16 0.17 0.17 0.16 0.15 0.12 0.09 0.08 0.06 0.07 0.06 0.03 0.02 0.00

GFSMA_prec_precacc12_105.txt.gz
Total_Precipitation_Accumulation
0.00 0.00 0.00 0.00 0.00 0.01 0.01 0.03 0.04 0.03 0.06 0.08 0.12 0.17 0.25 0.24 0.26 0.22 0.27 0.40 0.58 1.04 0.60 0.74 0.37 0.25 0.17 0.09 0.06 0.03 0.01 0.00 0.00 0.00 0.00 0.00 0.00 0.00 0.00 0.00 0.00 0.00 0.00
0.00 0.00 0.01 0.00 0.00 0.00 0.01 0.02 0.03 0.04 0.07 0.09 0.14 0.29 0.41 0.35 0.33 0.32 0.19 0.21 0.29 0.81 1.16 0.68 0.87 0.24 0.12 0.09 0.13 0.11 0.04 0.02 0.00 0.01 0.00 0.01 0.00 0.00 0.00 0.00 0.00 0.00 0.00
0.01 0.00 0.01 0.01 0.01 0.00 0.01 0.02 0.02 0.04 0.06 0.06 0.07 0.26 0.44 0.46 0.44 0.40 0.32 0.16 0.18 0.34 1.56 1.34 1.27 0.39 0.17 0.11 0.12 0.10 0.07 0.04 0.02 0.01 0.00 0.00 0.01 0.00 0.00 0.00 0.01 0.01 0.00
0.00 0.00 0.01 0.00 0.01 0.01 0.01 0.01 0.02 0.02 0.02 0.05 0.05 0.17 0.38 0.48 0.50 0.54 0.52 0.37 0.33 0.26 0.83 1.71 1.77 1.51 0.37 0.13 0.14 0.09 0.04 0.02 0.02 0.02 0.01 0.01 0.01 0.01 0.01 0.01 0.00 0.00 0.00
0.01 0.00 0.00 0.00 0.01 0.01 0.01 0.01 0.01 0.01 0.01 0.02 0.03 0.05 0.26 0.42 0.50 0.55 0.64 0.54 0.58 0.53 0.39 0.92 1.08 1.02 0.54 0.27 0.12 0.11 0.05 0.01 0.02 0.02 0.01 0.01 0.01 0.01 0.01 0.01 0.01 0.00 0.00
0.00 0.01 0.00 0.00 0.01 0.02 0.02 0.02 0.01 0.00 0.00 0.01 0.02 0.03 0.07 0.23 0.37 0.48 0.61 0.64 0.61 0.85 0.56 0.68 0.41 0.46 0.23 0.07 0.09 0.09 0.06 0.01 0.01 0.02 0.02 0.01 0.01 0.01 0.01 0.01 0.00 0.00 0.00
0.01 0.01 0.00 0.00 0.01 0.01 0.01 0.01 0.01 0.01 0.01 0.01 0.03 0.04 0.05 0.09 0.17 0.33 0.49 0.46 0.68 0.66 0.79 0.89 0.43 0.23 0.09 0.03 0.02 0.04 0.04 0.02 0.02 0.02 0.02 0.02 0.01 0.01 0.01 0.00 0.00 0.00 0.00
0.01 0.01 0.01 0.01 0.01 0.02 0.01 0.02 0.02 0.02 0.03 0.02 0.02 0.02 0.04 0.11 0.22 0.29 0.31 0.36 0.40 0.51 0.55 1.08 0.88 0.31 0.11 0.04 0.01 0.01 0.03 0.04 0.03 0.02 0.03 0.02 0.01 0.01 0.01 0.01 0.00 0.00 0.00
0.17 0.09 0.03 0.02 0.01 0.02 0.02 0.03 0.04 0.05 0.03 0.04 0.02 0.02 0.01 0.04 0.10 0.26 0.31 0.27 0.32 0.33 0.29 0.51 0.82 0.43 0.18 0.09 0.03 0.01 0.01 0.03 0.04 0.03 0.03 0.02 0.01 0.01 0.00 0.00 0.00 0.00 0.00
0.64 0.50 0.27 0.20 0.13 0.06 0.05 0.03 0.05 0.09 0.12 0.08 0.07 0.04 0.03 0.04 0.04 0.09 0.21 0.29 0.22 0.21 0.24 0.22 0.27 0.26 0.15 0.08 0.05 0.02 0.00 0.00 0.02 0.02 0.02 0.02 0.01 0.01 0.00 0.00 0.00 0.00 0.01
0.25 0.45 0.48 0.37 0.32 0.20 0.14 0.12 0.07 0.08 0.09 0.10 0.07 0.05 0.04 0.04 0.07 0.07 0.13 0.23 0.26 0.16 0.09 0.11 0.14 0.14 0.11 0.03 0.02 0.01 0.00 0.00 0.00 0.01 0.02 0.01 0.01 0.01 0.01 0.00 0.00 0.00 0.00
0.08 0.08 0.19 0.14 0.16 0.28 0.27 0.29 0.25 0.13 0.07 0.08 0.10 0.10 0.07 0.05 0.05 0.13 0.19 0.21 0.24 0.23 0.20 0.14 0.06 0.04 0.05 0.04 0.02 0.01 0.00 0.00 0.00 0.00 0.01 0.01 0.01 0.01 0.01 0.01 0.01 0.00 0.00
0.07 0.03 0.06 0.05 0.04 0.05 0.04 0.05 0.10 0.15 0.09 0.07 0.07 0.09 0.11 0.10 0.13 0.17 0.31 0.34 0.28 0.20 0.23 0.21 0.14 0.06 0.01 0.00 0.00 0.01 0.00 0.00 0.00 0.00 0.00 0.00 0.01 0.01 0.01 0.01 0.01 0.01 0.01
0.04 0.08 0.07 0.09 0.11 0.12 0.10 0.08 0.06 0.07 0.07 0.07 0.06 0.05 0.07 0.11 0.16 0.18 0.19 0.25 0.29 0.23 0.12 0.07 0.07 0.09 0.07 0.04 0.02 0.00 0.00 0.00 0.00 0.00 0.00 0.00 0.00 0.00 0.00 0.00 0.00 0.01 0.02
0.13 0.15 0.08 0.19 0.26 0.23 0.17 0.15 0.07 0.07 0.07 0.07 0.07 0.08 0.10 0.08 0.13 0.20 0.20 0.18 0.18 0.24 0.17 0.09 0.04 0.02 0.03 0.05 0.05 0.02 0.00 0.00 0.00 0.00 0.00 0.00 0.00 0.00 0.00 0.00 0.00 0.00 0.00
0.22 0.20 0.16 0.20 0.21 0.31 0.37 0.20 0.10 0.10 0.12 0.11 0.14 0.15 0.13 0.12 0.12 0.15 0.16 0.12 0.13 0.16 0.17 0.11 0.08 0.04 0.03 0.03 0.03 0.03 0.01 0.01 0.00 0.00 0.00 0.00 0.00 0.00 0.00 0.00 0.00 0.00 0.00
0.27 0.19 0.17 0.15 0.17 0.23 0.37 0.41 0.29 0.23 0.16 0.21 0.24 0.22 0.18 0.17 0.25 0.23 0.19 0.16 0.13 0.12 0.14 0.18 0.09 0.08 0.08 0.08 0.07 0.05 0.02 0.02 0.01 0.00 0.00 0.00 0.00 0.00 0.00 0.00 0.00 0.00 0.00
0.18 0.16 0.06 0.10 0.09 0.12 0.20 0.58 0.58 0.44 0.20 0.13 0.22 0.34 0.38 0.26 0.23 0.26 0.25 0.23 0.17 0.16 0.11 0.16 0.16 0.11 0.08 0.07 0.12 0.15 0.16 0.11 0.01 0.01 0.01 0.00 0.00 0.00 0.00 0.00 0.00 0.00 0.00
0.07 0.09 0.05 0.03 0.05 0.05 0.05 0.07 0.31 0.35 0.25 0.25 0.19 0.26 0.30 0.33 0.29 0.22 0.21 0.23 0.24 0.21 0.26 0.21 0.17 0.11 0.08 0.09 0.18 0.27 0.19 0.07 0.01 0.02 0.01 0.01 0.01 0.02 0.02 0.02 0.02 0.01 0.01
0.08 0.07 0.05 0.03 0.02 0.03 0.05 0.05 0.04 0.07 0.13 0.24 0.29 0.27 0.35 0.35 0.33 0.26 0.22 0.25 0.29 0.31 0.27 0.24 0.20 0.16 0.12 0.13 0.16 0.13 0.08 0.06 0.05 0.03 0.03 0.05 0.08 0.09 0.08 0.08 0.09 0.08 0.08
0.19 0.08 0.05 0.01 0.01 0.00 0.01 0.02 0.05 0.05 0.06 0.15 0.23 0.30 0.35 0.45 0.45 0.47 0.36 0.33 0.33 0.32 0.33 0.32 0.30 0.26 0.22 0.20 0.19 0.18 0.17 0.11 0.13 0.11 0.09 0.09 0.08 0.10 0.13 0.15 0.16 0.15 0.12
0.35 0.10 0.06 0.03 0.01 0.00 0.03 0.03 0.04 0.05 0.08 0.12 0.18 0.30 0.49 0.53 0.55 0.62 0.67 0.66 0.58 0.47 0.42 0.34 0.29 0.25 0.22 0.19 0.21 0.27 0.26 0.24 0.23 0.15 0.14 0.21 0.19 0.15 0.13 0.14 0.18 0.15 0.12
0.75 0.54 0.18 0.05 0.02 0.01 0.03 0.03 0.05 0.02 0.05 0.04 0.06 0.15 0.30 0.62 0.68 0.58 0.72 0.77 0.86 0.90 0.69 0.56 0.43 0.30 0.23 0.21 0.23 0.25 0.21 0.18 0.15 0.18 0.25 0.28 0.26 0.26 0.24 0.27 0.23 0.12 0.09
1.16 0.96 0.45 0.17 0.05 0.02 0.05 0.04 0.07 0.03 0.08 0.09 0.06 0.06 0.13 0.25 0.57 0.65 0.66 0.81 0.86 0.84 0.89 0.68 0.56 0.54 0.42 0.37 0.31 0.24 0.25 0.29 0.34 0.35 0.32 0.31 0.26 0.23 0.21 0.19 0.24 0.12 0.10
0.80 0.87 0.77 0.46 0.24 0.11 0.12 0.10 0.06 0.01 0.02 0.05 0.08 0.11 0.10 0.06 0.15 0.32 0.35 0.43 0.57 0.73 0.78 0.79 0.71 0.60 0.61 0.64 0.56 0.43 0.42 0.33 0.34 0.29 0.21 0.16 0.18 0.18 0.19 0.16 0.15 0.11 0.06
0.93 0.76 0.67 0.54 0.41 0.22 0.16 0.10 0.07 0.02 0.05 0.05 0.04 0.08 0.16 0.14 0.16 0.13 0.13 0.19 0.24 0.34 0.47 0.52 0.49 0.49 0.46 0.47 0.48 0.37 0.37 0.35 0.31 0.29 0.20 0.15 0.13 0.10 0.11 0.10 0.06 0.05 0.03

GFSMA_prec_precacc12_108.txt.gz
Total_Precipitation_Accumulation
0.00 0.00 0.00 0.00 0.00 0.01 0.01 0.03 0.04 0.04 0.06 0.08 0.10 0.09 0.09 0.06 0.13 0.19 0.21 0.26 0.45 0.75 0.59 0.85 0.56 0.50 0.56 0.36 0.16 0.02 0.01 0.01 0.00 0.00 0.00 0.00 0.00 0.00 0.00 0.00 0.00 0.00 0.00
0.00 0.00 0.00 0.00 0.00 0.00 0.01 0.02 0.03 0.06 0.09 0.10 0.09 0.07 0.09 0.11 0.18 0.19 0.22 0.20 0.26 0.61 1.05 0.74 1.03 0.53 0.38 0.29 0.24 0.12 0.04 0.02 0.01 0.00 0.00 0.00 0.00 0.00 0.00 0.00 0.00 0.00 0.00
0.00 0.00 0.00 0.00 0.00 0.00 0.01 0.02 0.03 0.07 0.07 0.07 0.04 0.05 0.07 0.16 0.28 0.25 0.29 0.20 0.18 0.32 1.51 1.38 1.41 0.61 0.59 0.47 0.22 0.12 0.08 0.05 0.02 0.01 0.00 0.00 0.00 0.00 0.00 0.00 0.00 0.00 0.00
0.00 0.00 0.00 0.00 0.00 0.01 0.02 0.01 0.02 0.03 0.03 0.05 0.05 0.05 0.08 0.21 0.34 0.40 0.40 0.34 0.31 0.26 0.85 1.77 1.90 1.93 0.96 0.86 0.43 0.11 0.07 0.04 0.02 0.01 0.00 0.00 0.00 0.00 0.00 0.00 0.00 0.00 0.00
0.00 0.00 0.00 0.00 0.00 0.01 0.02 0.01 0.01 0.01 0.02 0.03 0.04 0.03 0.08 0.16 0.31 0.44 0.53 0.44 0.54 0.52 0.41 0.96 1.14 1.47 1.60 1.16 0.76 0.18 0.08 0.02 0.01 0.01 0.00 0.00 0.01 0.01 0.01 0.00 0.00 0.00 0.00
0.00 0.01 0.00 0.00 0.00 0.01 0.02 0.02 0.01 0.01 0.01 0.02 0.02 0.02 0.05 0.13 0.22 0.37 0.54 0.56 0.57 0.85 0.57 0.71 0.42 0.51 0.63 0.82 0.78 0.30 0.11 0.02 0.00 0.01 0.01 0.00 0.01 0.01 0.01 0.00 0.00 0.00 0.00
0.04 0.01 0.01 0.01 0.01 0.01 0.01 0.01 0.01 0.01 0.02 0.02 0.03 0.03 0.03 0.07 0.15 0.24 0.39 0.43 0.66 0.66 0.80 0.91 0.44 0.27 0.22 0.36 0.43 0.31 0.09 0.02 0.00 0.01 0.01 0.01 0.01 0.01 0.01 0.00 0.00 0.00 0.00
0.15 0.08 0.06 0.05 0.06 0.04 0.01 0.02 0.01 0.01 0.02 0.02 0.02 0.02 0.02 0.05 0.08 0.16 0.22 0.30 0.39 0.51 0.55 1.10 1.05 0.41 0.23 0.18 0.27 0.21 0.12 0.08 0.02 0.02 0.03 0.02 0.01 0.01 0.01 0.01 0.01 0.01 0.00
0.20 0.13 0.06 0.10 0.27 0.44 0.35 0.08 0.02 0.02 0.01 0.02 0.02 0.02 0.01 0.01 0.04 0.06 0.14 0.20 0.30 0.33 0.29 0.53 1.12 0.77 0.45 0.24 0.19 0.13 0.07 0.08 0.05 0.03 0.03 0.02 0.01 0.01 0.00 0.01 0.01 0.01 0.01
0.64 0.54 0.31 0.26 0.27 0.24 0.22 0.21 0.10 0.05 0.04 0.03 0.05 0.04 0.02 0.03 0.02 0.03 0.06 0.13 0.18 0.20 0.24 0.24 0.53 0.91 0.69 0.41 0.19 0.08 0.03 0.02 0.02 0.02 0.02 0.01 0.01 0.01 0.01 0.01 0.01 0.01 0.01
0.24 0.46 0.49 0.38 0.36 0.28 0.22 0.20 0.10 0.05 0.06 0.05 0.05 0.04 0.04 0.04 0.05 0.03 0.01 0.07 0.17 0.13 0.08 0.12 0.20 0.44 0.69 0.70 0.31 0.14 0.03 0.00 0.00 0.01 0.02 0.01 0.01 0.01 0.01 0.00 0.00 0.00 0.01
0.14 0.15 0.27 0.18 0.18 0.31 0.31 0.42 0.44 0.24 0.14 0.11 0.08 0.09 0.07 0.04 0.03 0.04 0.04 0.04 0.10 0.14 0.18 0.14 0.06 0.11 0.25 0.49 0.38 0.25 0.10 0.00 0.00 0.00 0.01 0.02 0.02 0.01 0.01 0.01 0.01 0.01 0.00
0.30 0.29 0.21 0.11 0.07 0.06 0.08 0.10 0.24 0.35 0.27 0.13 0.08 0.08 0.09 0.09 0.10 0.07 0.13 0.12 0.13 0.14 0.21 0.22 0.15 0.09 0.07 0.08 0.15 0.18 0.14 0.06 0.01 0.00 0.00 0.01 0.01 0.01 0.01 0.01 0.01 0.01 0.01
0.11 0.29 0.31 0.18 0.14 0.14 0.22 0.29 0.29 0.22 0.16 0.28 0.17 0.11 0.09 0.06 0.11 0.10 0.09 0.13 0.18 0.17 0.12 0.07 0.07 0.10 0.09 0.04 0.03 0.03 0.04 0.08 0.06 0.02 0.00 0.00 0.00 0.00 0.00 0.00 0.00 0.01 0.02
0.19 0.20 0.11 0.23 0.30 0.30 0.23 0.23 0.14 0.11 0.07 0.09 0.13 0.18 0.17 0.06 0.04 0.05 0.11 0.13 0.14 0.16 0.14 0.09 0.05 0.03 0.04 0.06 0.07 0.03 0.00 0.01 0.02 0.01 0.00 0.00 0.00 0.00 0.00 0.00 0.00 0.00 0.00
0.30 0.27 0.18 0.20 0.22 0.34 0.39 0.22 0.10 0.11 0.13 0.15 0.19 0.23 0.17 0.08 0.05 0.03 0.05 0.08 0.11 0.14 0.18 0.14 0.09 0.04 0.05 0.06 0.04 0.03 0.01 0.03 0.01 0.00 0.00 0.00 0.00 0.00 0.00 0.00 0.00 0.00 0.00
0.41 0.32 0.29 0.22 0.20 0.25 0.45 0.47 0.29 0.33 0.30 0.23 0.21 0.19 0.15 0.12 0.09 0.07 0.09 0.12 0.09 0.11 0.15 0.14 0.10 0.08 0.09 0.10 0.07 0.05 0.02 0.02 0.01 0.01 0.00 0.00 0.00 0.00 0.00 0.00 0.00 0.00 0.00
0.44 0.49 0.31 0.19 0.18 0.16 0.27 0.63 0.60 0.45 0.32 0.37 0.44 0.34 0.25 0.19 0.11 0.09 0.16 0.17 0.14 0.10 0.10 0.10 0.10 0.10 0.08 0.06 0.11 0.14 0.16 0.14 0.03 0.01 0.00 0.00 0.00 0.00 0.00 0.00 0.00 0.00 0.00
0.27 0.45 0.48 0.41 0.31 0.15 0.08 0.11 0.35 0.43 0.20 0.13 0.36 0.53 0.28 0.20 0.12 0.13 0.18 0.19 0.18 0.15 0.19 0.20 0.15 0.08 0.06 0.07 0.18 0.32 0.27 0.12 0.04 0.04 0.03 0.02 0.02 0.01 0.02 0.02 0.01 0.01 0.01
0.15 0.18 0.31 0.35 0.35 0.20 0.09 0.05 0.04 0.13 0.31 0.12 0.11 0.17 0.17 0.18 0.13 0.14 0.16 0.18 0.21 0.24 0.21 0.25 0.24 0.17 0.12 0.14 0.25 0.21 0.14 0.11 0.09 0.06 0.06 0.06 0.08 0.09 0.08 0.07 0.05 0.05 0.05
0.37 0.28 0.20 0.18 0.25 0.15 0.10 0.06 0.03 0.06 0.13 0.20 0.09 0.08 0.11 0.15 0.20 0.25 0.23 0.24 0.27 0.27 0.29 0.29 0.29 0.27 0.23 0.23 0.25 0.18 0.15 0.15 0.22 0.28 0.16 0.11 0.09 0.10 0.13 0.14 0.14 0.12 0.10
0.75 0.42 0.46 0.24 0.16 0.09 0.11 0.11 0.08 0.05 0.06 0.09 0.21 0.14 0.18 0.25 0.30 0.35 0.45 0.47 0.46 0.38 0.33 0.29 0.26 0.23 0.20 0.16 0.17 0.22 0.20 0.23 0.28 0.23 0.22 0.25 0.23 0.16 0.13 0.13 0.17 0.15 0.14
0.95 0.91 0.52 0.32 0.16 0.12 0.17 0.15 0.08 0.03 0.03 0.04 0.05 0.07 0.10 0.28 0.43 0.40 0.50 0.55 0.65 0.72 0.61 0.52 0.43 0.29 0.27 0.25 0.24 0.26 0.24 0.21 0.18 0.23 0.36 0.37 0.30 0.25 0.20 0.23 0.22 0.13 0.13
1.20 1.03 0.64 0.46 0.28 0.14 0.15 0.12 0.14 0.03 0.03 0.04 0.03 0.03 0.05 0.12 0.37 0.47 0.47 0.59 0.70 0.77 0.88 0.79 0.68 0.61 0.58 0.56 0.38 0.32 0.39 0.40 0.42 0.40 0.35 0.31 0.24 0.23 0.21 0.23 0.30 0.16 0.14
0.81 0.96 0.88 0.58 0.45 0.33 0.27 0.21 0.15 0.03 0.02 0.03 0.05 0.06 0.06 0.02 0.08 0.22 0.27 0.34 0.48 0.69 0.84 0.91 0.84 0.71 0.78 0.96 0.72 0.57 0.60 0.46 0.48 0.41 0.30 0.24 0.25 0.27 0.27 0.24 0.23 0.19 0.14
0.94 0.83 0.81 0.78 0.76 0.61 0.55 0.39 0.29 0.12 0.05 0.04 0.03 0.06 0.10 0.08 0.10 0.10 0.12 0.17 0.20 0.30 0.42 0.53 0.60 0.68 0.69 0.74 0.74 0.59 0.59 0.57 0.49 0.43 0.29 0.23 0.23 0.19 0.24 0.21 0.13 0.12 0.09

GFSMA_prec_precacc12_114.txt.gz
Total_Precipitation_Accumulation
0.00 0.00 0.00 0.00 0.00 0.00 0.01 0.01 0.01 0.01 0.03 0.04 0.06 0.07 0.07 0.06 0.09 0.14 0.12 0.11 0.17 0.11 0.25 0.73 0.51 0.53 0.63 0.75 0.77 0.62 0.36 0.31 0.11 0.01 0.00 0.00 0.00 0.00 0.00 0.00 0.00 0.00 0.00
0.00 0.00 0.00 0.00 0.00 0.00 0.01 0.01 0.01 0.03 0.05 0.06 0.06 0.05 0.06 0.07 0.09 0.11 0.08 0.08 0.05 0.04 0.16 0.49 0.96 0.53 0.41 0.44 0.78 0.69 0.46 0.32 0.15 0.01 0.00 0.00 0.00 0.00 0.00 0.00 0.00 0.00 0.00
0.05 0.03 0.00 0.00 0.00 0.00 0.01 0.01 0.02 0.06 0.05 0.04 0.02 0.04 0.04 0.04 0.05 0.06 0.08 0.05 0.02 0.02 0.10 0.51 1.06 0.60 0.65 0.58 0.70 1.05 0.92 0.72 0.24 0.02 0.00 0.00 0.00 0.00 0.00 0.00 0.00 0.00 0.00
0.27 0.36 0.23 0.08 0.04 0.01 0.02 0.01 0.02 0.03 0.03 0.03 0.03 0.02 0.04 0.04 0.05 0.05 0.09 0.07 0.01 0.05 0.11 0.82 1.51 1.72 0.92 0.97 1.07 1.08 1.24 0.94 0.56 0.08 0.01 0.00 0.00 0.00 0.00 0.00 0.00 0.00 0.00
0.22 0.25 0.27 0.28 0.21 0.13 0.03 0.00 0.01 0.02 0.01 0.02 0.03 0.02 0.03 0.05 0.05 0.05 0.04 0.05 0.02 0.03 0.18 0.78 1.04 1.36 1.56 1.20 1.31 1.19 1.04 1.13 0.81 0.21 0.10 0.03 0.00 0.00 0.00 0.00 0.00 0.00 0.00
0.07 0.13 0.13 0.10 0.30 0.34 0.22 0.14 0.04 0.02 0.01 0.01 0.02 0.02 0.02 0.05 0.05 0.04 0.03 0.02 0.01 0.08 0.29 0.58 0.39 0.47 0.62 0.83 0.98 0.84 0.68 0.51 0.43 0.24 0.15 0.05 0.02 0.00 0.00 0.00 0.00 0.00 0.00
0.13 0.01 0.02 0.05 0.13 0.16 0.10 0.23 0.33 0.23 0.13 0.07 0.09 0.08 0.02 0.04 0.06 0.03 0.02 0.02 0.02 0.19 0.60 0.74 0.36 0.22 0.20 0.36 0.46 0.68 0.50 0.32 0.21 0.16 0.13 0.07 0.03 0.01 0.00 0.00 0.00 0.00 0.01
0.16 0.10 0.07 0.07 0.11 0.22 0.33 0.30 0.54 0.60 0.39 0.32 0.28 0.13 0.06 0.03 0.02 0.03 0.02 0.02 0.06 0.24 0.43 1.01 0.97 0.35 0.20 0.16 0.30 0.36 0.40 0.42 0.25 0.14 0.09 0.05 0.02 0.00 0.00 0.00 0.00 0.01 0.01
0.05 0.08 0.08 0.15 0.35 0.75 0.91 1.01 1.11 1.12 0.90 0.78 0.68 0.60 0.30 0.10 0.05 0.01 0.03 0.02 0.02 0.12 0.16 0.42 1.08 0.75 0.45 0.25 0.22 0.30 0.29 0.38 0.47 0.23 0.07 0.02 0.00 0.00 0.00 0.01 0.00 0.01 0.02
0.08 0.08 0.09 0.18 0.23 0.39 0.48 0.62 0.77 0.88 1.04 1.14 1.27 1.29 0.89 0.31 0.10 0.02 0.01 0.02 0.02 0.04 0.12 0.14 0.44 0.88 0.70 0.49 0.31 0.18 0.23 0.31 0.46 0.65 0.19 0.03 0.00 0.00 0.00 0.01 0.01 0.02 0.02
0.04 0.09 0.13 0.13 0.26 0.32 0.26 0.23 0.18 0.15 0.13 0.23 0.22 0.20 0.32 0.23 0.10 0.04 0.00 0.02 0.04 0.01 0.02 0.07 0.16 0.42 0.70 0.77 0.47 0.33 0.19 0.23 0.46 0.51 0.60 0.16 0.01 0.00 0.00 0.00 0.01 0.01 0.02
0.09 0.16 0.36 0.25 0.27 0.43 0.39 0.46 0.54 0.38 0.23 0.12 0.09 0.04 0.03 0.03 0.03 0.04 0.03 0.02 0.01 0.01 0.03 0.02 0.01 0.10 0.27 0.59 0.73 0.52 0.39 0.25 0.33 0.55 0.52 0.30 0.05 0.01 0.00 0.00 0.01 0.01 0.02
0.28 0.30 0.42 0.35 0.27 0.33 0.33 0.32 0.48 0.73 0.78 0.40 0.24 0.17 0.11 0.08 0.09 0.11 0.15 0.10 0.02 0.00 0.01 0.02 0.01 0.04 0.08 0.18 0.32 0.52 0.58 0.40 0.35 0.41 0.52 0.37 0.09 0.01 0.00 0.00 0.00 0.01 0.01
0.08 0.26 0.61 0.57 0.42 0.33 0.35 0.51 0.58 0.61 0.81 0.94 0.42 0.24 0.16 0.11 0.15 0.12 0.12 0.15 0.06 0.03 0.01 0.00 0.01 0.01 0.04 0.06 0.12 0.19 0.35 0.46 0.35 0.28 0.32 0.30 0.12 0.02 0.00 0.00 0.00 0.00 0.01
0.08 0.10 0.14 0.30 0.30 0.30 0.24 0.34 0.40 0.35 0.34 0.54 0.47 0.30 0.32 0.21 0.20 0.15 0.12 0.12 0.09 0.05 0.02 0.02 0.01 0.01 0.01 0.03 0.06 0.06 0.07 0.17 0.26 0.23 0.16 0.17 0.15 0.05 0.00 0.00 0.00 0.00 0.00
0.12 0.13 0.10 0.25 0.28 0.35 0.33 0.19 0.22 0.28 0.29 0.45 0.68 0.60 0.36 0.19 0.21 0.22 0.20 0.20 0.15 0.11 0.08 0.05 0.01 0.01 0.04 0.05 0.05 0.05 0.04 0.07 0.09 0.14 0.15 0.13 0.14 0.10 0.03 0.00 0.00 0.00 0.00
0.27 0.28 0.27 0.36 0.23 0.31 0.51 0.54 0.40 0.50 0.50 0.48 0.66 0.46 0.30 0.26 0.25 0.24 0.25 0.23 0.18 0.13 0.07 0.03 0.02 0.01 0.04 0.08 0.10 0.10 0.06 0.04 0.04 0.05 0.08 0.09 0.10 0.08 0.04 0.01 0.00 0.00 0.00
0.39 0.51 0.40 0.42 0.39 0.37 0.48 0.81 0.78 0.59 0.51 0.64 0.82 0.72 0.45 0.40 0.31 0.28 0.22 0.16 0.14 0.15 0.12 0.06 0.02 0.02 0.03 0.04 0.07 0.12 0.16 0.17 0.08 0.03 0.02 0.06 0.08 0.08 0.05 0.02 0.01 0.00 0.00
0.27 0.51 0.58 0.61 0.66 0.48 0.38 0.33 0.58 0.72 0.48 0.46 0.62 0.78 0.64 0.46 0.40 0.47 0.43 0.24 0.13 0.11 0.19 0.19 0.08 0.04 0.04 0.05 0.13 0.29 0.26 0.12 0.05 0.09 0.05 0.03 0.04 0.08 0.06 0.02 0.02 0.01 0.00
0.16 0.24 0.45 0.54 0.80 0.83 0.78 0.60 0.55 0.45 0.58 0.43 0.34 0.31 0.43 0.43 0.27 0.27 0.29 0.34 0.34 0.24 0.13 0.18 0.18 0.12 0.08 0.09 0.23 0.19 0.14 0.13 0.10 0.08 0.08 0.07 0.08 0.10 0.10 0.04 0.03 0.03 0.03
0.36 0.28 0.24 0.28 0.59 0.95 0.58 0.44 0.33 0.53 0.55 0.56 0.32 0.23 0.22 0.32 0.24 0.20 0.25 0.19 0.18 0.20 0.18 0.17 0.19 0.19 0.20 0.22 0.24 0.16 0.14 0.15 0.22 0.26 0.14 0.10 0.11 0.13 0.16 0.16 0.12 0.10 0.08
0.70 0.49 0.54 0.36 0.26 0.48 0.69 0.46 0.44 0.36 0.52 0.47 0.37 0.21 0.17 0.09 0.07 0.12 0.17 0.29 0.29 0.25 0.22 0.18 0.17 0.16 0.13 0.11 0.10 0.10 0.11 0.19 0.27 0.21 0.19 0.22 0.20 0.21 0.21 0.21 0.26 0.23 0.25
0.49 0.78 0.59 0.48 0.37 0.32 0.65 0.49 0.53 0.66 0.53 0.33 0.23 0.20 0.08 0.06 0.11 0.07 0.15 0.20 0.30 0.33 0.29 0.26 0.23 0.14 0.15 0.14 0.11 0.08 0.08 0.10 0.12 0.16 0.29 0.41 0.36 0.32 0.32 0.33 0.34 0.27 0.25
0.47 0.67 0.65 0.56 0.41 0.39 0.40 0.66 0.67 0.66 0.60 0.40 0.30 0.14 0.09 0.05 0.08 0.17 0.22 0.20 0.18 0.23 0.31 0.37 0.37 0.35 0.36 0.39 0.24 0.26 0.39 0.45 0.46 0.47 0.43 0.41 0.35 0.37 0.33 0.32 0.43 0.36 0.35
0.25 0.65 0.81 0.62 0.54 0.51 0.60 0.57 0.61 0.53 0.73 0.59 0.35 0.26 0.19 0.14 0.17 0.16 0.13 0.16 0.14 0.24 0.37 0.45 0.44 0.40 0.51 0.82 0.60 0.48 0.61 0.53 0.65 0.64 0.55 0.40 0.34 0.36 0.38 0.33 0.32 0.33 0.29
0.32 0.36 0.62 0.79 0.84 0.77 0.80 0.75 0.77 0.60 0.46 0.56 0.43 0.27 0.26 0.22 0.20 0.16 0.09 0.09 0.11 0.12 0.20 0.28 0.34 0.41 0.50 0.65 0.65 0.48 0.48 0.56 0.54 0.53 0.34 0.30 0.35 0.34 0.42 0.36 0.25 0.24 0.24